Time,TemperatureF,DewpointF,PressureIn,WindDirection,WindDirectionDegrees,WindSpeedMPH,WindSpeedGustMPH,Humidity,HourlyPrecipIn,Conditions,Clouds,dailyrainin,SolarRadiationWatts/m^2,SoftwareType,DateUTC
2013-05-27 00:02:00,40.0,36.0,-100.00,SW,214,7.0,9.0,86,0.00,,,0.12,1.000000,,2013-05-27 07:02:00,
2013-05-27 00:11:00,40.0,36.0,-100.00,SW,214,7.0,9.0,86,0.00,,,0.12,1.000000,,2013-05-27 07:11:00,
2013-05-27 00:21:00,40.0,36.0,-100.00,SW,214,7.0,9.0,86,0.00,,,0.12,1.000000,,2013-05-27 07:21:00,
2013-05-27 00:52:00,40.0,36.0,-100.00,SSW,205,8.0,11.0,85,0.00,,,0.12,1.000000,,2013-05-27 07:52:00,
2013-05-27 01:02:00,40.0,36.0,-100.00,SSW,205,8.0,11.0,85,0.00,,,0.12,1.000000,,2013-05-27 08:02:00,
2013-05-27 01:11:00,40.0,36.0,-100.00,SSW,205,8.0,11.0,85,0.00,,,0.12,1.000000,,2013-05-27 08:11:00,
2013-05-27 01:21:00,40.0,36.0,-100.00,SSW,205,8.0,11.0,85,0.00,,,0.12,1.000000,,2013-05-27 08:21:00,
2013-05-27 01:42:00,39.0,37.0,-100.00,SSW,205,5.0,10.0,91,0.00,,,0.09,1.000000,,2013-05-27 08:42:00,
2013-05-27 01:52:00,39.0,37.0,-100.00,SSW,205,5.0,10.0,91,0.00,,,0.09,1.000000,,2013-05-27 08:52:00,
2013-05-27 02:02:00,39.0,37.0,-100.00,SSW,205,5.0,10.0,91,0.00,,,0.09,1.000000,,2013-05-27 09:02:00,
2013-05-27 02:11:00,39.0,37.0,-100.00,SSW,205,5.0,10.0,91,0.00,,,0.09,1.000000,,2013-05-27 09:11:00,
2013-05-27 02:21:00,39.0,37.0,-100.00,SSW,205,5.0,10.0,91,0.00,,,0.09,1.000000,,2013-05-27 09:21:00,
2013-05-27 02:53:00,40.0,36.0,-100.00,SSW,211,10.0,13.0,86,0.00,,,0.03,1.000000,,2013-05-27 09:53:00,
2013-05-27 03:02:00,40.0,36.0,-100.00,SSW,211,10.0,13.0,86,0.00,,,0.03,1.000000,,2013-05-27 10:02:00,
2013-05-27 03:12:00,40.0,36.0,-100.00,SSW,211,10.0,13.0,86,0.00,,,0.03,1.000000,,2013-05-27 10:12:00,
2013-05-27 03:22:00,40.0,36.0,-100.00,SSW,211,10.0,13.0,86,0.00,,,0.03,1.000000,,2013-05-27 10:22:00,
2013-05-27 03:42:00,36.0,35.0,-100.00,SSW,206,7.0,14.0,96,0.00,,,0.01,1.000000,,2013-05-27 10:42:00,
2013-05-27 03:52:00,36.0,35.0,-100.00,SSW,206,7.0,14.0,96,0.00,,,0.01,1.000000,,2013-05-27 10:52:00,
2013-05-27 04:02:00,36.0,35.0,-100.00,SSW,206,7.0,14.0,96,0.00,,,0.01,1.000000,,2013-05-27 11:02:00,
2013-05-27 04:11:00,36.0,35.0,-100.00,SSW,206,7.0,14.0,96,0.00,,,0.01,1.000000,,2013-05-27 11:11:00,
2013-05-27 04:21:00,36.0,35.0,-100.00,SSW,206,7.0,14.0,96,0.00,,,0.01,1.000000,,2013-05-27 11:21:00,
2013-05-27 04:52:00,38.0,35.0,-100.00,SW,217,8.0,12.0,89,0.00,,,0.00,1.000000,,2013-05-27 11:52:00,
2013-05-27 05:01:00,38.0,35.0,-100.00,SW,217,8.0,12.0,89,0.00,,,0.00,1.000000,,2013-05-27 12:01:00,
2013-05-27 05:11:00,38.0,35.0,-100.00,SW,217,8.0,12.0,89,0.00,,,0.00,1.000000,,2013-05-27 12:11:00,
2013-05-27 05:21:00,38.0,35.0,-100.00,SW,217,8.0,12.0,89,0.00,,,0.00,1.000000,,2013-05-27 12:21:00,
2013-05-27 05:52:00,38.0,35.0,-100.00,SW,215,8.0,13.0,89,0.00,,,0.00,1.000000,,2013-05-27 12:52:00,
2013-05-27 06:01:00,38.0,35.0,-100.00,SW,215,8.0,13.0,89,0.00,,,0.00,1.000000,,2013-05-27 13:01:00,
2013-05-27 06:11:00,38.0,35.0,-100.00,SW,215,8.0,13.0,89,0.00,,,0.00,1.000000,,2013-05-27 13:11:00,
2013-05-27 06:21:00,38.0,35.0,-100.00,SW,215,8.0,13.0,89,0.00,,,0.00,1.000000,,2013-05-27 13:21:00,
2013-05-27 06:52:00,40.0,37.0,-100.00,SSW,203,9.0,18.0,90,0.00,,,0.00,9.000000,,2013-05-27 13:52:00,
2013-05-27 07:01:00,40.0,37.0,-100.00,SSW,203,9.0,18.0,90,0.00,,,0.00,9.000000,,2013-05-27 14:01:00,
2013-05-27 07:11:00,40.0,37.0,-100.00,SSW,203,9.0,18.0,90,0.00,,,0.00,9.000000,,2013-05-27 14:11:00,
2013-05-27 07:21:00,40.0,37.0,-100.00,SSW,203,9.0,18.0,90,0.00,,,0.00,9.000000,,2013-05-27 14:21:00,
2013-05-27 07:52:00,40.0,39.0,-100.00,SSW,201,9.0,18.0,95,0.02,,,0.02,25.000000,,2013-05-27 14:52:00,
2013-05-27 08:01:00,40.0,39.0,-100.00,SSW,201,9.0,18.0,95,0.02,,,0.02,25.000000,,2013-05-27 15:01:00,
2013-05-27 08:11:00,40.0,39.0,-100.00,SSW,201,9.0,18.0,95,0.02,,,0.02,25.000000,,2013-05-27 15:11:00,
2013-05-27 08:21:00,40.0,39.0,-100.00,SSW,201,9.0,18.0,95,0.02,,,0.02,25.000000,,2013-05-27 15:21:00,
2013-05-27 08:53:00,41.0,40.0,-100.00,SSW,205,12.0,20.0,97,0.03,,,0.05,73.000000,,2013-05-27 15:53:00,
2013-05-27 09:02:00,41.0,40.0,-100.00,SSW,205,12.0,20.0,97,0.03,,,0.05,73.000000,,2013-05-27 16:02:00,
2013-05-27 09:12:00,41.0,40.0,-100.00,SSW,205,12.0,20.0,97,0.03,,,0.05,73.000000,,2013-05-27 16:12:00,
2013-05-27 09:22:00,41.0,40.0,-100.00,SSW,205,12.0,20.0,97,0.03,,,0.05,73.000000,,2013-05-27 16:22:00,
2013-05-27 09:52:00,41.0,40.0,-100.00,SSW,205,9.0,22.0,97,0.03,,,0.08,115.000000,,2013-05-27 16:52:00,
2013-05-27 10:02:00,41.0,40.0,-100.00,SSW,205,9.0,22.0,97,0.03,,,0.08,115.000000,,2013-05-27 17:02:00,
2013-05-27 10:11:00,41.0,40.0,-100.00,SSW,205,9.0,22.0,97,0.03,,,0.08,115.000000,,2013-05-27 17:11:00,
2013-05-27 10:22:00,41.0,40.0,-100.00,SSW,205,9.0,22.0,97,0.03,,,0.08,115.000000,,2013-05-27 17:22:00,
2013-05-27 10:52:00,43.0,42.0,-100.00,SSW,208,10.0,18.0,96,0.01,,,0.09,220.000000,,2013-05-27 17:52:00,
2013-05-27 11:02:00,43.0,42.0,-100.00,SSW,208,10.0,18.0,96,0.01,,,0.09,220.000000,,2013-05-27 18:02:00,
2013-05-27 11:11:00,43.0,42.0,-100.00,SSW,208,10.0,18.0,96,0.01,,,0.09,220.000000,,2013-05-27 18:11:00,
2013-05-27 11:21:00,43.0,42.0,-100.00,SSW,208,10.0,18.0,96,0.01,,,0.09,220.000000,,2013-05-27 18:21:00,
2013-05-27 11:52:00,44.0,42.0,-100.00,SSW,209,13.0,22.0,93,0.02,,,0.11,330.000000,,2013-05-27 18:52:00,
2013-05-27 12:01:00,44.0,42.0,-100.00,SSW,209,13.0,22.0,93,0.02,,,0.11,330.000000,,2013-05-27 19:01:00,
2013-05-27 12:11:00,44.0,42.0,-100.00,SSW,209,13.0,22.0,93,0.02,,,0.11,330.000000,,2013-05-27 19:11:00,
2013-05-27 12:21:00,44.0,42.0,-100.00,SSW,209,13.0,22.0,93,0.02,,,0.11,330.000000,,2013-05-27 19:21:00,
2013-05-27 12:42:00,47.0,43.0,-100.00,SW,216,11.0,20.0,87,0.00,,,0.11,553.000000,,2013-05-27 19:42:00,
2013-05-27 12:52:00,47.0,43.0,-100.00,SW,216,11.0,20.0,87,0.00,,,0.11,553.000000,,2013-05-27 19:52:00,
2013-05-27 13:01:00,47.0,43.0,-100.00,SW,216,11.0,20.0,87,0.00,,,0.11,553.000000,,2013-05-27 20:01:00,
2013-05-27 13:11:00,47.0,43.0,-100.00,SW,216,11.0,20.0,87,0.00,,,0.11,553.000000,,2013-05-27 20:11:00,
2013-05-27 13:21:00,47.0,43.0,-100.00,SW,216,11.0,20.0,87,0.00,,,0.11,553.000000,,2013-05-27 20:21:00,
2013-05-27 13:52:00,51.0,45.0,-100.00,SW,214,13.0,24.0,79,0.00,,,0.11,732.000000,,2013-05-27 20:52:00,
2013-05-27 14:01:00,51.0,45.0,-100.00,SW,214,13.0,24.0,79,0.00,,,0.11,732.000000,,2013-05-27 21:01:00,
2013-05-27 14:11:00,51.0,45.0,-100.00,SW,214,13.0,24.0,79,0.00,,,0.11,732.000000,,2013-05-27 21:11:00,
2013-05-27 14:21:00,51.0,45.0,-100.00,SW,214,13.0,24.0,79,0.00,,,0.11,732.000000,,2013-05-27 21:21:00,
2013-05-27 14:53:00,49.0,43.0,-100.00,SW,214,13.0,26.0,81,0.00,,,0.11,525.000000,,2013-05-27 21:53:00,
2013-05-27 15:02:00,49.0,43.0,-100.00,SW,214,13.0,26.0,81,0.00,,,0.11,525.000000,,2013-05-27 22:02:00,
2013-05-27 15:12:00,49.0,43.0,-100.00,SW,214,13.0,26.0,81,0.00,,,0.11,525.000000,,2013-05-27 22:12:00,
2013-05-27 15:22:00,49.0,43.0,-100.00,SW,214,13.0,26.0,81,0.00,,,0.11,525.000000,,2013-05-27 22:22:00,
2013-05-27 15:53:00,50.0,45.0,-100.00,SW,223,11.0,23.0,84,0.02,,,0.13,358.000000,,2013-05-27 22:53:00,
2013-05-27 16:02:00,50.0,45.0,-100.00,SW,223,11.0,23.0,84,0.02,,,0.13,358.000000,,2013-05-27 23:02:00,
2013-05-27 16:12:00,50.0,45.0,-100.00,SW,223,11.0,23.0,84,0.02,,,0.13,358.000000,,2013-05-27 23:12:00,
2013-05-27 16:22:00,50.0,45.0,-100.00,SW,223,11.0,23.0,84,0.02,,,0.13,358.000000,,2013-05-27 23:22:00,
2013-05-27 16:42:00,52.0,44.0,-100.00,SW,226,9.0,18.0,75,0.00,,,0.13,420.000000,,2013-05-27 23:42:00,
2013-05-27 16:52:00,52.0,44.0,-100.00,SW,226,9.0,18.0,75,0.00,,,0.13,420.000000,,2013-05-27 23:52:00,
2013-05-27 17:01:00,52.0,44.0,-100.00,SW,226,9.0,18.0,75,0.00,,,0.13,420.000000,,2013-05-28 00:01:00,
2013-05-27 17:11:00,52.0,44.0,-100.00,SW,226,9.0,18.0,75,0.00,,,0.13,420.000000,,2013-05-28 00:11:00,
2013-05-27 17:21:00,52.0,44.0,-100.00,SW,226,9.0,18.0,75,0.00,,,0.13,420.000000,,2013-05-28 00:21:00,
2013-05-27 17:52:00,53.0,43.0,-100.00,SW,217,12.0,23.0,70,0.00,,,0.13,346.000000,,2013-05-28 00:52:00,
2013-05-27 18:01:00,53.0,43.0,-100.00,SW,217,12.0,23.0,70,0.00,,,0.13,346.000000,,2013-05-28 01:01:00,
2013-05-27 18:11:00,53.0,43.0,-100.00,SW,217,12.0,23.0,70,0.00,,,0.13,346.000000,,2013-05-28 01:11:00,
2013-05-27 18:21:00,53.0,43.0,-100.00,SW,217,12.0,23.0,70,0.00,,,0.13,346.000000,,2013-05-28 01:21:00,
2013-05-27 18:52:00,51.0,41.0,-100.00,SW,216,10.0,22.0,68,0.00,,,0.13,314.000000,,2013-05-28 01:52:00,
2013-05-27 19:02:00,51.0,41.0,-100.00,SW,216,10.0,22.0,68,0.00,,,0.13,314.000000,,2013-05-28 02:02:00,
2013-05-27 19:11:00,51.0,41.0,-100.00,SW,216,10.0,22.0,68,0.00,,,0.13,314.000000,,2013-05-28 02:11:00,
2013-05-27 19:21:00,51.0,41.0,-100.00,SW,216,10.0,22.0,68,0.00,,,0.13,314.000000,,2013-05-28 02:21:00,
2013-05-27 19:42:00,48.0,39.0,-100.00,SW,216,9.0,21.0,71,0.00,,,0.13,166.000000,,2013-05-28 02:42:00,
2013-05-27 19:52:00,48.0,39.0,-100.00,SW,216,9.0,21.0,71,0.00,,,0.13,166.000000,,2013-05-28 02:52:00,
2013-05-27 20:01:00,48.0,39.0,-100.00,SW,216,9.0,21.0,71,0.00,,,0.13,166.000000,,2013-05-28 03:01:00,
2013-05-27 20:11:00,48.0,39.0,-100.00,SW,216,9.0,21.0,71,0.00,,,0.13,166.000000,,2013-05-28 03:11:00,
2013-05-27 20:21:00,48.0,39.0,-100.00,SW,216,9.0,21.0,71,0.00,,,0.13,166.000000,,2013-05-28 03:21:00,
2013-05-27 20:53:00,46.0,39.0,-100.00,SW,219,11.0,20.0,75,0.00,,,0.13,41.000000,,2013-05-28 03:53:00,
2013-05-27 21:02:00,46.0,39.0,-100.00,SW,219,11.0,20.0,75,0.00,,,0.13,41.000000,,2013-05-28 04:02:00,
2013-05-27 21:12:00,46.0,39.0,-100.00,SW,219,11.0,20.0,75,0.00,,,0.13,41.000000,,2013-05-28 04:12:00,
2013-05-27 21:22:00,46.0,39.0,-100.00,SW,219,11.0,20.0,75,0.00,,,0.13,41.000000,,2013-05-28 04:22:00,
2013-05-27 21:53:00,44.0,38.0,-100.00,SW,222,10.0,20.0,78,0.00,,,0.13,2.000000,,2013-05-28 04:53:00,
2013-05-27 22:02:00,44.0,38.0,-100.00,SW,222,10.0,20.0,78,0.00,,,0.13,2.000000,,2013-05-28 05:02:00,
2013-05-27 22:12:00,44.0,38.0,-100.00,SW,222,10.0,20.0,78,0.00,,,0.13,2.000000,,2013-05-28 05:12:00,
2013-05-27 22:22:00,44.0,38.0,-100.00,SW,222,10.0,20.0,78,0.00,,,0.13,2.000000,,2013-05-28 05:22:00,
2013-05-27 22:52:00,43.0,37.0,-100.00,SW,218,7.0,14.0,79,0.00,,,0.13,1.000000,,2013-05-28 05:52:00,
2013-05-27 23:02:00,43.0,37.0,-100.00,SW,218,7.0,14.0,79,0.00,,,0.13,1.000000,,2013-05-28 06:02:00,
2013-05-27 23:11:00,43.0,37.0,-100.00,SW,218,7.0,14.0,79,0.00,,,0.13,1.000000,,2013-05-28 06:11:00,
2013-05-27 23:21:00,43.0,37.0,-100.00,SW,218,7.0,14.0,79,0.00,,,0.13,1.000000,,2013-05-28 06:21:00,
2013-05-27 23:42:00,41.0,39.0,-100.00,SW,223,10.0,16.0,92,0.00,,,0.13,1.000000,,2013-05-28 06:42:00,
2013-05-27 23:52:00,41.0,39.0,-100.00,SW,223,10.0,16.0,92,0.00,,,0.13,1.000000,,2013-05-28 06:52:00,